This demonstration page uses our WeatherBlox Daily Observations layout. Learn more.

36.17497, -115.13722

Hourly Observations for August 20, 2018

Temp ( °F °C ) Dew Point ( °F °C ) Humidity (%) Winds ( mph kmh ) Pressure ( in mb ) Visibility ( mi km ) Precip ( " mm )
12:53 am 00:53 Clear 95 35 41 5 15 15 SW 7 11 29.75 1008 10 16.0934 0 0
1:53 am 01:53 Clear 92 33.3 42 5.6 18 18 N 6 9 29.76 1008 10 16.0934 0 0
2:53 am 02:53 Clear 90 32.2 42 5.6 19 19 N 7 11 29.76 1008 10 16.0934 0 0
3:53 am 03:53 Clear 89 31.7 44 6.7 21 21 SSW 3 6 29.77 1008 10 16.0934 0 0
4:53 am 04:53 Clear 89 31.7 43 6.1 20 20 Calm 29.78 1008 10 16.0934 0 0
5:53 am 05:53 Clear 86 30 44 6.7 23 23 N 6 9 29.79 1009 10 16.0934 0 0
6:53 am 06:53 Sunny 84 28.9 45 7.2 25 25 Calm 29.82 1010 10 16.0934 0 0
7:53 am 07:53 Sunny 90 32.2 45 7.2 21 21 Calm 29.82 1010 10 16.0934 0 0
8:53 am 08:53 Sunny 93 33.9 45 7.2 19 19 Calm 29.83 1010 10 16.0934 0 0
9:53 am 09:53 Sunny 99 37.2 45 7.2 16 16 S 3 6 29.82 1010 10 16.0934 0 0
10:53 am 10:53 Sunny 103 39.4 50 10 17 17 S 18 30 29.8 1009 10 16.0934 0 0
11:53 am 11:53 Sunny 105 40.6 49 9.4 15 15 SW 20 31 29.8 1009 10 16.0934 0 0
12:53 pm 12:53 Sunny 106 41.1 47 8.3 14 14 S 17 28 29.78 1008 10 16.0934 0 0
1:53 pm 13:53 Sunny 108 42.2 48 8.9 13 13 WSW 18 30 29.76 1008 10 16.0934 0 0
2:53 pm 14:53 Sunny 107 41.7 49 9.4 14 14 WSW 23 37 29.74 1007 10 16.0934 0 0
3:53 pm 15:53 Sunny 107 41.7 50 10 15 15 WSW 17 28 29.71 1006 10 16.0934 0 0
4:23 pm 16:23 Sunny with Nearby Thunderstorms 107 41.7 49 9.4 14 14 W 18 30 29.53 1000 10 16.0934 0 0
4:38 pm 16:38 Sunny 107 41.7 49 9.4 14 14 SW 20 31 29.53 1000 10 16.0934 0 0
4:53 pm 16:53 Sunny 106 41.1 49 9.4 15 15 WSW 17 28 29.7 1006 10 16.0934 0 0
5:53 pm 17:53 Mostly Sunny 106 41.1 51 10.6 16 16 SW 15 24 29.7 1006 10 16.0934 0 0
6:53 pm 18:53 Sunny 104 40 52 11.1 18 18 SW 15 24 29.7 1006 10 16.0934 0 0
7:53 pm 19:53 Partly Cloudy 102 38.9 55 12.8 21 21 SW 21 33 29.71 1006 10 16.0934 0 0
8:53 pm 20:53 Clear 100 37.8 54 12.2 21 21 SSW 18 30 29.72 1007 10 16.0934 0 0
9:53 pm 21:53 Clear 99 37.2 54 12.2 22 22 SSW 14 22 29.74 1007 10 16.0934 0 0
11:53 pm 23:53 Clear 96 35.6 46 7.8 18 18 SW 10 17 29.76 1008 10 16.0934 0 0

Powered by AerisWeather